Time,TemperatureF,DewpointF,PressureIn,WindDirection,WindDirectionDegrees,WindSpeedMPH,WindSpeedGustMPH,Humidity,HourlyPrecipIn,Conditions,Clouds,dailyrainin,SoftwareType,DateUTC
2013-11-23 00:00:00,46.1,2.9,29.89,North,0,0.9,3.6,17,0.00,,,0.00,WUHU216HW,2013-11-23 05:00:00,
2013-11-23 00:01:00,46.1,1.4,29.89,NW,315,1.3,3.6,16,0.00,,,0.00,WUHU216HW,2013-11-23 05:01:00,
2013-11-23 00:06:00,45.7,-6.3,29.90,North,0,0.4,3.6,11,0.00,,,0.00,WUHU216HW,2013-11-23 05:06:00,
2013-11-23 00:11:00,45.7,-6.3,29.90,NNW,338,2.7,2.7,11,0.00,,,0.00,WUHU216HW,2013-11-23 05:11:00,
2013-11-23 00:16:00,45.5,-6.5,29.89,NW,315,1.3,4.9,11,0.00,,,0.00,WUHU216HW,2013-11-23 05:16:00,
2013-11-23 00:21:00,45.5,-0.5,29.90,NNW,338,1.8,5.4,15,0.00,,,0.00,WUHU216HW,2013-11-23 05:21:00,
2013-11-23 00:26:00,45.5,-4.9,29.89,North,0,0.4,5.4,12,0.00,,,0.00,WUHU216HW,2013-11-23 05:26:00,
2013-11-23 00:31:00,45.4,-0.7,29.90,NNW,338,3.4,4.9,15,0.00,,,0.00,WUHU216HW,2013-11-23 05:31:00,
2013-11-23 00:36:00,45.2,3.6,29.90,NNE,23,1.8,4.9,18,0.00,,,0.00,WUHU216HW,2013-11-23 05:36:00,
2013-11-23 00:41:00,45.0,6.4,29.90,NW,315,5.8,6.5,20,0.00,,,0.00,WUHU216HW,2013-11-23 05:41:00,
2013-11-23 00:46:00,45.0,9.1,29.91,WNW,293,4.0,6.5,23,0.00,,,0.00,WUHU216HW,2013-11-23 05:46:00,
2013-11-23 00:51:00,45.2,13.8,29.91,NNW,338,5.1,6.7,28,0.00,,,0.00,WUHU216HW,2013-11-23 05:51:00,
2013-11-23 00:56:00,45.2,16.9,29.91,WNW,293,3.1,7.2,32,0.00,,,0.00,WUHU216HW,2013-11-23 05:56:00,
2013-11-23 01:01:00,45.0,17.5,29.91,WSW,248,4.0,7.2,33,0.00,,,0.00,WUHU216HW,2013-11-23 06:01:00,
2013-11-23 01:06:00,45.0,19.4,29.91,WNW,293,4.0,7.2,36,0.00,,,0.00,WUHU216HW,2013-11-23 06:06:00,
2013-11-23 01:11:00,44.8,18.6,29.91,West,270,3.8,7.2,35,0.00,,,0.00,WUHU216HW,2013-11-23 06:11:00,
2013-11-23 01:16:00,44.6,18.5,29.91,NNW,338,1.1,6.3,35,0.00,,,0.00,WUHU216HW,2013-11-23 06:16:00,
2013-11-23 01:21:00,44.6,15.8,29.91,WNW,293,1.8,4.7,31,0.00,,,0.00,WUHU216HW,2013-11-23 06:21:00,
2013-11-23 01:26:00,44.5,13.1,29.91,NNW,338,2.2,4.5,28,0.00,,,0.00,WUHU216HW,2013-11-23 06:26:00,
2013-11-23 01:31:00,44.3,10.3,29.90,WNW,293,4.0,4.3,25,0.00,,,0.00,WUHU216HW,2013-11-23 06:31:00,
2013-11-23 01:36:00,44.3,16.8,29.90,NNW,338,3.4,5.4,33,0.00,,,0.00,WUHU216HW,2013-11-23 06:36:00,
2013-11-23 01:41:00,44.1,12.0,29.90,NNW,338,3.4,5.4,27,0.00,,,0.00,WUHU216HW,2013-11-23 06:41:00,
2013-11-23 01:46:00,43.9,15.9,29.90,NW,315,1.3,4.7,32,0.00,,,0.00,WUHU216HW,2013-11-23 06:46:00,
2013-11-23 01:51:00,43.9,15.1,29.90,NW,315,0.9,4.0,31,0.00,,,0.00,WUHU216HW,2013-11-23 06:51:00,
2013-11-23 01:56:00,43.9,14.5,29.90,NNW,338,1.1,3.4,30,0.00,,,0.00,WUHU216HW,2013-11-23 06:56:00,
2013-11-23 02:01:00,43.7,9.8,29.90,North,0,2.9,2.9,25,0.00,,,0.00,WUHU216HW,2013-11-23 07:01:00,
2013-11-23 02:06:00,43.7,13.4,29.91,WNW,293,1.8,2.9,29,0.00,,,0.00,WUHU216HW,2013-11-23 07:06:00,
2013-11-23 02:11:00,43.7,12.5,29.90,NW,315,1.1,2.2,28,0.00,,,0.00,WUHU216HW,2013-11-23 07:11:00,
2013-11-23 02:16:00,43.6,12.3,29.90,NW,315,0.9,2.0,28,0.00,,,0.00,WUHU216HW,2013-11-23 07:16:00,
2013-11-23 02:21:00,43.6,13.2,29.90,WSW,248,0.2,2.9,29,0.00,,,0.00,WUHU216HW,2013-11-23 07:21:00,
2013-11-23 02:26:00,43.4,14.0,29.90,NW,315,1.1,2.9,30,0.00,,,0.00,WUHU216HW,2013-11-23 07:26:00,
2013-11-23 02:31:00,43.2,13.0,29.90,NNW,338,0.2,1.1,29,0.00,,,0.00,WUHU216HW,2013-11-23 07:31:00,
2013-11-23 02:36:00,43.2,13.0,29.90,NNW,338,0.0,1.1,29,0.00,,,0.00,WUHU216HW,2013-11-23 07:36:00,
2013-11-23 02:41:00,43.2,12.1,29.90,NNW,338,0.0,0.4,28,0.00,,,0.00,WUHU216HW,2013-11-23 07:41:00,
2013-11-23 02:46:00,43.2,7.6,29.90,WNW,293,1.1,1.1,23,0.00,,,0.00,WUHU216HW,2013-11-23 07:46:00,
2013-11-23 02:51:00,43.0,11.9,29.90,NNW,338,1.1,1.3,28,0.00,,,0.00,WUHU216HW,2013-11-23 07:51:00,
2013-11-23 02:56:00,43.0,15.7,29.90,NW,315,2.5,2.5,33,0.00,,,0.00,WUHU216HW,2013-11-23 07:56:00,
2013-11-23 03:01:00,42.8,15.5,29.90,NW,315,1.1,2.7,33,0.00,,,0.00,WUHU216HW,2013-11-23 08:01:00,
2013-11-23 03:06:00,42.8,14.9,29.90,NW,315,1.1,2.7,32,0.00,,,0.00,WUHU216HW,2013-11-23 08:06:00,
2013-11-23 03:11:00,42.8,14.1,29.91,West,270,4.0,4.0,31,0.00,,,0.00,WUHU216HW,2013-11-23 08:11:00,
2013-11-23 03:16:00,42.8,16.8,29.91,NNW,338,2.0,4.5,35,0.00,,,0.00,WUHU216HW,2013-11-23 08:16:00,
2013-11-23 03:21:00,42.8,16.8,29.90,NNW,338,1.6,4.5,35,0.00,,,0.00,WUHU216HW,2013-11-23 08:21:00,
2013-11-23 03:26:00,42.7,16.7,29.90,NNW,338,1.3,3.4,35,0.00,,,0.00,WUHU216HW,2013-11-23 08:26:00,
2013-11-23 03:31:00,42.5,16.6,29.91,NNW,338,0.0,2.2,35,0.00,,,0.00,WUHU216HW,2013-11-23 08:31:00,
2013-11-23 03:36:00,42.5,13.9,29.90,NNW,338,0.9,2.2,31,0.00,,,0.00,WUHU216HW,2013-11-23 08:36:00,
2013-11-23 03:41:00,42.1,20.1,29.90,NNW,338,1.3,6.3,41,0.00,,,0.00,WUHU216HW,2013-11-23 08:41:00,
2013-11-23 03:46:00,41.9,19.9,29.90,NNW,338,0.4,6.3,41,0.00,,,0.00,WUHU216HW,2013-11-23 08:46:00,
2013-11-23 03:51:00,41.8,20.8,29.90,NW,315,6.5,6.5,43,0.00,,,0.00,WUHU216HW,2013-11-23 08:51:00,
2013-11-23 03:56:00,41.4,21.5,29.90,NNW,338,3.4,6.9,45,0.00,,,0.00,WUHU216HW,2013-11-23 08:56:00,
2013-11-23 04:01:00,41.4,23.6,29.90,NNW,338,3.4,6.9,49,0.00,,,0.00,WUHU216HW,2013-11-23 09:01:00,
2013-11-23 04:06:00,41.2,24.4,29.91,NW,315,3.4,6.3,51,0.00,,,0.00,WUHU216HW,2013-11-23 09:06:00,
2013-11-23 04:11:00,41.0,23.8,29.91,North,0,1.8,5.6,50,0.00,,,0.00,WUHU216HW,2013-11-23 09:11:00,
2013-11-23 04:16:00,40.9,23.0,29.91,NNW,338,1.8,4.7,49,0.00,,,0.00,WUHU216HW,2013-11-23 09:16:00,
2013-11-23 04:21:00,40.7,23.9,29.91,NW,315,5.1,5.4,51,0.00,,,0.00,WUHU216HW,2013-11-23 09:21:00,
2013-11-23 04:26:00,40.7,21.9,29.91,NNW,338,1.1,5.4,47,0.00,,,0.00,WUHU216HW,2013-11-23 09:26:00,
2013-11-23 04:31:00,40.7,21.9,29.91,NNW,338,1.1,5.1,47,0.00,,,0.00,WUHU216HW,2013-11-23 09:31:00,
2013-11-23 04:36:00,40.7,20.8,29.91,NW,315,1.8,2.2,45,0.00,,,0.00,WUHU216HW,2013-11-23 09:36:00,
2013-11-23 04:41:00,40.5,20.7,29.91,NW,315,1.8,2.5,45,0.00,,,0.00,WUHU216HW,2013-11-23 09:41:00,
2013-11-23 04:46:00,40.5,19.1,29.91,North,0,1.1,2.5,42,0.00,,,0.00,WUHU216HW,2013-11-23 09:46:00,
2013-11-23 04:51:00,40.3,20.0,29.91,NNW,338,1.8,2.7,44,0.00,,,0.00,WUHU216HW,2013-11-23 09:51:00,
2013-11-23 04:56:00,40.1,19.8,29.91,NNW,338,2.5,2.7,44,0.00,,,0.00,WUHU216HW,2013-11-23 09:56:00,
2013-11-23 05:01:00,40.1,19.8,29.91,North,0,0.9,3.6,44,0.00,,,0.00,WUHU216HW,2013-11-23 10:01:00,
2013-11-23 05:06:00,40.0,20.2,29.91,NE,45,0.0,3.6,45,0.00,,,0.00,WUHU216HW,2013-11-23 10:06:00,
2013-11-23 05:11:00,40.0,20.7,29.91,NW,315,2.5,3.6,46,0.00,,,0.00,WUHU216HW,2013-11-23 10:11:00,
2013-11-23 05:16:00,40.0,21.3,29.91,NNW,338,0.9,3.6,47,0.00,,,0.00,WUHU216HW,2013-11-23 10:16:00,
2013-11-23 05:21:00,39.8,20.5,29.91,NNW,338,0.4,3.4,46,0.00,,,0.00,WUHU216HW,2013-11-23 10:21:00,
2013-11-23 05:26:00,39.8,20.0,29.91,NW,315,1.6,1.6,45,0.00,,,0.00,WUHU216HW,2013-11-23 10:26:00,
2013-11-23 05:31:00,39.8,20.0,29.91,NNW,338,2.2,3.1,45,0.00,,,0.00,WUHU216HW,2013-11-23 10:31:00,
2013-11-23 05:36:00,39.8,20.0,29.91,NNW,338,0.7,3.1,45,0.00,,,0.00,WUHU216HW,2013-11-23 10:36:00,
2013-11-23 05:41:00,39.8,20.0,29.91,North,0,0.4,2.9,45,0.00,,,0.00,WUHU216HW,2013-11-23 10:41:00,
2013-11-23 05:46:00,39.6,19.9,29.91,NNW,338,0.0,2.9,45,0.00,,,0.00,WUHU216HW,2013-11-23 10:46:00,
2013-11-23 05:51:00,39.6,19.9,29.91,NNW,338,0.4,2.0,45,0.00,,,0.00,WUHU216HW,2013-11-23 10:51:00,
2013-11-23 05:56:00,39.6,18.8,29.92,WNW,293,2.2,3.4,43,0.00,,,0.00,WUHU216HW,2013-11-23 10:56:00,
2013-11-23 06:01:00,39.2,19.5,29.92,NNE,23,0.2,3.4,45,0.00,,,0.00,WUHU216HW,2013-11-23 11:01:00,
2013-11-23 06:06:00,39.2,19.5,29.92,NE,45,0.0,2.7,45,0.00,,,0.00,WUHU216HW,2013-11-23 11:06:00,
2013-11-23 06:11:00,39.2,19.0,29.92,NW,315,0.0,1.8,44,0.00,,,0.00,WUHU216HW,2013-11-23 11:11:00,
2013-11-23 06:16:00,39.1,18.4,29.92,NNE,23,0.0,1.8,43,0.00,,,0.00,WUHU216HW,2013-11-23 11:16:00,
2013-11-23 06:21:00,38.9,17.6,29.92,WSW,248,0.0,0.4,42,0.00,,,0.00,WUHU216HW,2013-11-23 11:21:00,
2013-11-23 06:26:00,39.1,18.4,29.91,NNW,338,0.0,0.9,43,0.00,,,0.00,WUHU216HW,2013-11-23 11:26:00,
2013-11-23 06:31:00,38.7,18.0,29.91,ESE,113,0.7,1.1,43,0.00,,,0.00,WUHU216HW,2013-11-23 11:31:00,
2013-11-23 06:36:00,38.7,18.0,29.91,West,270,1.1,1.6,43,0.00,,,0.00,WUHU216HW,2013-11-23 11:36:00,
2013-11-23 06:41:00,38.5,18.9,29.92,SSE,158,1.1,2.0,45,0.00,,,0.00,WUHU216HW,2013-11-23 11:41:00,
2013-11-23 06:46:00,38.5,19.9,29.92,NW,315,2.5,3.4,47,0.00,,,0.00,WUHU216HW,2013-11-23 11:46:00,
2013-11-23 06:51:00,38.3,22.2,29.92,NNW,338,0.0,3.6,52,0.00,,,0.00,WUHU216HW,2013-11-23 11:51:00,
2013-11-23 06:56:00,38.3,21.3,29.92,WNW,293,1.1,3.6,50,0.00,,,0.00,WUHU216HW,2013-11-23 11:56:00,
2013-11-23 07:01:00,38.3,22.2,29.93,WNW,293,1.8,4.0,52,0.00,,,0.00,WUHU216HW,2013-11-23 12:01:00,
2013-11-23 07:06:00,38.5,23.2,29.93,WNW,293,1.3,4.0,54,0.00,,,0.00,WUHU216HW,2013-11-23 12:06:00,
2013-11-23 07:11:00,38.3,25.2,29.93,NW,315,1.8,2.9,59,0.00,,,0.00,WUHU216HW,2013-11-23 12:11:00,
2013-11-23 07:16:00,38.3,24.8,29.93,WSW,248,0.0,3.4,58,0.00,,,0.00,WUHU216HW,2013-11-23 12:16:00,
2013-11-23 07:21:00,38.2,24.7,29.92,NW,315,1.3,3.4,58,0.00,,,0.00,WUHU216HW,2013-11-23 12:21:00,
2013-11-23 07:26:00,37.8,24.3,29.93,NNW,338,2.0,2.5,58,0.00,,,0.00,WUHU216HW,2013-11-23 12:26:00,
2013-11-23 07:31:00,37.8,24.8,29.93,NNW,338,1.3,3.1,59,0.00,,,0.00,WUHU216HW,2013-11-23 12:31:00,
2013-11-23 07:36:00,37.4,23.9,29.93,North,0,3.1,3.4,58,0.00,,,0.00,WUHU216HW,2013-11-23 12:36:00,
2013-11-23 07:41:00,37.3,23.4,29.94,NW,315,2.5,3.4,57,0.00,,,0.00,WUHU216HW,2013-11-23 12:41:00,
2013-11-23 07:46:00,37.1,22.8,29.94,NW,315,2.5,5.8,56,0.00,,,0.00,WUHU216HW,2013-11-23 12:46:00,
2013-11-23 07:51:00,36.5,21.4,29.94,NNW,338,3.4,5.8,54,0.00,,,0.00,WUHU216HW,2013-11-23 12:51:00,
2013-11-23 07:56:00,36.4,21.2,29.94,NW,315,4.5,4.9,54,0.00,,,0.00,WUHU216HW,2013-11-23 12:56:00,
2013-11-23 08:01:00,36.4,21.7,29.94,NNW,338,4.7,4.9,55,0.00,,,0.00,WUHU216HW,2013-11-23 13:01:00,
2013-11-23 08:06:00,36.5,21.4,29.95,NW,315,2.9,4.9,54,0.00,,,0.00,WUHU216HW,2013-11-23 13:06:00,
2013-11-23 08:11:00,36.9,23.5,29.94,North,0,1.8,4.9,58,0.00,,,0.00,WUHU216HW,2013-11-23 13:11:00,
2013-11-23 08:16:00,37.1,24.5,29.95,NW,315,1.8,3.4,60,0.00,,,0.00,WUHU216HW,2013-11-23 13:16:00,
2013-11-23 08:21:00,37.3,24.2,29.95,NNW,338,2.9,3.8,59,0.00,,,0.00,WUHU216HW,2013-11-23 13:21:00,
2013-11-23 08:26:00,37.4,24.4,29.95,NW,315,3.8,3.8,59,0.00,,,0.00,WUHU216HW,2013-11-23 13:26:00,
2013-11-23 08:31:00,37.8,25.2,29.94,West,270,3.1,4.3,60,0.00,,,0.00,WUHU216HW,2013-11-23 13:31:00,
2013-11-23 08:36:00,37.8,25.2,29.95,West,270,1.3,4.3,60,0.00,,,0.00,WUHU216HW,2013-11-23 13:36:00,
2013-11-23 08:41:00,38.0,24.5,29.95,WNW,293,3.4,3.8,58,0.00,,,0.00,WUHU216HW,2013-11-23 13:41:00,
2013-11-23 08:46:00,38.2,25.5,29.95,NW,315,0.0,3.4,60,0.00,,,0.00,WUHU216HW,2013-11-23 13:46:00,
2013-11-23 08:51:00,38.5,25.4,29.96,NNW,338,0.7,2.7,59,0.00,,,0.00,WUHU216HW,2013-11-23 13:51:00,
2013-11-23 08:56:00,38.5,26.9,29.96,NNW,338,0.9,3.1,63,0.00,,,0.00,WUHU216HW,2013-11-23 13:56:00,
2013-11-23 09:01:00,38.7,26.7,29.95,WNW,293,0.7,3.1,62,0.00,,,0.00,WUHU216HW,2013-11-23 14:01:00,
2013-11-23 09:06:00,38.7,27.1,29.95,NNW,338,0.4,2.0,63,0.00,,,0.00,WUHU216HW,2013-11-23 14:06:00,
2013-11-23 09:11:00,38.9,27.3,29.95,West,270,0.0,1.3,63,0.00,,,0.00,WUHU216HW,2013-11-23 14:11:00,
2013-11-23 09:16:00,39.1,27.5,29.95,NW,315,1.6,1.6,63,0.00,,,0.00,WUHU216HW,2013-11-23 14:16:00,
2013-11-23 09:21:00,38.9,28.8,29.95,NNW,338,4.0,4.0,67,0.00,,,0.00,WUHU216HW,2013-11-23 14:21:00,
2013-11-23 09:26:00,38.7,28.3,29.95,NNW,338,1.1,6.0,66,0.00,,,0.00,WUHU216HW,2013-11-23 14:26:00,
2013-11-23 09:31:00,38.7,27.5,29.95,WSW,248,0.4,6.0,64,0.00,,,0.00,WUHU216HW,2013-11-23 14:31:00,
2013-11-23 09:36:00,38.9,28.5,29.96,NNW,338,2.5,3.6,66,0.00,,,0.00,WUHU216HW,2013-11-23 14:36:00,
2013-11-23 09:41:00,38.9,28.5,29.95,NE,45,1.1,3.6,66,0.00,,,0.00,WUHU216HW,2013-11-23 14:41:00,
2013-11-23 09:46:00,39.1,28.5,29.95,West,270,1.8,3.4,66,0.00,,,0.00,WUHU216HW,2013-11-23 14:46:00,
2013-11-23 09:51:00,39.1,28.5,29.95,NW,315,0.9,3.4,66,0.00,,,0.00,WUHU216HW,2013-11-23 14:51:00,
2013-11-23 09:56:00,39.1,29.7,29.95,NNW,338,3.6,3.8,69,0.00,,,0.00,WUHU216HW,2013-11-23 14:56:00,
2013-11-23 10:01:00,40.1,30.0,29.96,WSW,248,4.3,6.5,67,0.00,,,0.00,WUHU216HW,2013-11-23 15:01:00,
2013-11-23 10:06:00,41.0,31.3,29.95,NW,315,4.7,6.5,68,0.00,,,0.00,WUHU216HW,2013-11-23 15:06:00,
2013-11-23 10:11:00,41.4,31.2,29.95,SW,225,3.8,7.6,67,0.00,,,0.00,WUHU216HW,2013-11-23 15:11:00,
2013-11-23 10:16:00,41.2,31.5,29.96,WSW,248,2.2,7.6,68,0.00,,,0.00,WUHU216HW,2013-11-23 15:16:00,
2013-11-23 10:21:00,42.1,32.3,29.95,SW,225,4.7,7.6,68,0.00,,,0.00,WUHU216HW,2013-11-23 15:21:00,
2013-11-23 10:26:00,43.2,33.4,29.95,SW,225,4.7,5.8,68,0.00,,,0.00,WUHU216HW,2013-11-23 15:26:00,
2013-11-23 10:31:00,44.8,34.9,29.95,SW,225,4.3,4.7,68,0.00,,,0.00,WUHU216HW,2013-11-23 15:31:00,
2013-11-23 10:36:00,44.5,33.4,29.95,WNW,293,2.5,4.7,65,0.00,,,0.00,WUHU216HW,2013-11-23 15:36:00,
2013-11-23 10:41:00,43.7,32.0,29.94,West,270,3.4,6.3,63,0.00,,,0.00,WUHU216HW,2013-11-23 15:41:00,
2013-11-23 10:46:00,43.7,32.0,29.94,West,270,4.9,6.3,63,0.00,,,0.00,WUHU216HW,2013-11-23 15:46:00,
2013-11-23 10:51:00,44.1,32.3,29.93,SW,225,1.6,5.1,63,0.00,,,0.00,WUHU216HW,2013-11-23 15:51:00,
2013-11-23 10:56:00,44.8,32.9,29.93,NNW,338,4.0,4.9,63,0.00,,,0.00,WUHU216HW,2013-11-23 15:56:00,
2013-11-23 11:01:00,45.0,32.4,29.93,NNW,338,1.1,4.9,61,0.00,,,0.00,WUHU216HW,2013-11-23 16:01:00,
2013-11-23 11:06:00,44.1,31.1,29.93,WNW,293,2.0,4.9,60,0.00,,,0.00,WUHU216HW,2013-11-23 16:06:00,
2013-11-23 11:11:00,43.9,31.3,29.92,WNW,293,4.0,6.5,61,0.00,,,0.00,WUHU216HW,2013-11-23 16:11:00,
2013-11-23 11:16:00,43.6,31.4,29.92,West,270,3.6,6.5,62,0.00,,,0.00,WUHU216HW,2013-11-23 16:16:00,
2013-11-23 11:21:00,43.6,31.0,29.92,NNW,338,3.6,5.4,61,0.00,,,0.00,WUHU216HW,2013-11-23 16:21:00,
2013-11-23 11:26:00,43.6,31.8,29.91,WSW,248,1.8,5.1,63,0.00,,,0.00,WUHU216HW,2013-11-23 16:26:00,
2013-11-23 11:31:00,43.9,32.1,29.91,SW,225,5.1,5.8,63,0.00,,,0.00,WUHU216HW,2013-11-23 16:31:00,
2013-11-23 11:36:00,43.9,32.1,29.91,WSW,248,2.5,5.8,63,0.00,,,0.00,WUHU216HW,2013-11-23 16:36:00,
2013-11-23 11:41:00,43.4,31.2,29.91,NW,315,4.5,5.8,62,0.00,,,0.00,WUHU216HW,2013-11-23 16:41:00,
2013-11-23 11:46:00,42.3,30.6,29.90,WSW,248,3.4,7.8,63,0.00,,,0.00,WUHU216HW,2013-11-23 16:46:00,
2013-11-23 11:51:00,42.7,30.9,29.90,WNW,293,3.4,7.8,63,0.00,,,0.00,WUHU216HW,2013-11-23 16:51:00,
2013-11-23 11:56:00,42.5,29.2,29.90,WNW,293,1.8,6.3,59,0.00,,,0.00,WUHU216HW,2013-11-23 16:56:00,
2013-11-23 12:01:00,41.8,26.7,29.90,WNW,293,4.7,8.7,55,0.00,,,0.00,WUHU216HW,2013-11-23 17:01:00,
2013-11-23 12:06:00,41.4,26.8,29.89,NW,315,6.7,8.7,56,0.00,,,0.00,WUHU216HW,2013-11-23 17:06:00,
2013-11-23 12:11:00,41.4,28.2,29.90,NNW,338,6.5,8.9,59,0.00,,,0.00,WUHU216HW,2013-11-23 17:11:00,
2013-11-23 12:16:00,41.8,27.5,29.90,NNW,338,6.0,9.4,57,0.00,,,0.00,WUHU216HW,2013-11-23 17:16:00,
2013-11-23 12:21:00,41.6,28.3,29.90,WNW,293,3.8,9.4,59,0.00,,,0.00,WUHU216HW,2013-11-23 17:21:00,
2013-11-23 12:26:00,41.4,29.3,29.89,NW,315,2.5,6.9,62,0.00,,,0.00,WUHU216HW,2013-11-23 17:26:00,
2013-11-23 12:31:00,41.4,28.2,29.89,NNW,338,5.4,7.4,59,0.00,,,0.00,WUHU216HW,2013-11-23 17:31:00,
2013-11-23 12:36:00,41.0,29.0,29.88,WSW,248,1.8,7.4,62,0.00,,,0.00,WUHU216HW,2013-11-23 17:36:00,
2013-11-23 12:41:00,41.4,29.3,29.88,SW,225,4.5,5.6,62,0.00,,,0.00,WUHU216HW,2013-11-23 17:41:00,
2013-11-23 12:46:00,41.0,28.3,29.88,NW,315,4.5,9.6,60,0.00,,,0.00,WUHU216HW,2013-11-23 17:46:00,
2013-11-23 12:51:00,40.5,28.1,29.87,West,270,1.3,9.6,61,0.00,,,0.00,WUHU216HW,2013-11-23 17:51:00,
2013-11-23 12:56:00,40.3,28.7,29.88,NW,315,6.3,6.9,63,0.00,,,0.00,WUHU216HW,2013-11-23 17:56:00,
2013-11-23 13:01:00,40.0,27.2,29.87,West,270,3.8,7.4,60,0.00,,,0.00,WUHU216HW,2013-11-23 18:01:00,
2013-11-23 13:06:00,40.0,27.5,29.88,WSW,248,3.6,7.4,61,0.00,,,0.00,WUHU216HW,2013-11-23 18:06:00,
2013-11-23 13:11:00,40.5,28.4,29.87,WSW,248,4.0,7.8,62,0.00,,,0.00,WUHU216HW,2013-11-23 18:11:00,
2013-11-23 13:16:00,40.5,26.8,29.87,WNW,293,5.6,7.8,58,0.00,,,0.00,WUHU216HW,2013-11-23 18:16:00,
2013-11-23 13:21:00,39.8,26.1,29.87,West,270,6.0,8.1,58,0.00,,,0.00,WUHU216HW,2013-11-23 18:21:00,
2013-11-23 13:26:00,39.2,25.6,29.87,NW,315,8.3,8.3,58,0.00,,,0.00,WUHU216HW,2013-11-23 18:26:00,
2013-11-23 13:31:00,38.9,25.8,29.87,WNW,293,3.8,9.4,59,0.00,,,0.00,WUHU216HW,2013-11-23 18:31:00,
2013-11-23 13:36:00,38.7,26.0,29.87,SW,225,7.4,9.4,60,0.00,,,0.00,WUHU216HW,2013-11-23 18:36:00,
2013-11-23 13:41:00,38.9,25.3,29.87,NNW,338,4.9,8.7,58,0.00,,,0.00,WUHU216HW,2013-11-23 18:41:00,
2013-11-23 13:46:00,38.7,25.6,29.88,SW,225,3.6,8.7,59,0.00,,,0.00,WUHU216HW,2013-11-23 18:46:00,
2013-11-23 13:51:00,38.5,26.2,29.87,WNW,293,4.7,10.5,61,0.00,,,0.00,WUHU216HW,2013-11-23 18:51:00,
2013-11-23 13:56:00,38.2,24.2,29.87,WNW,293,6.7,10.5,57,0.00,,,0.00,WUHU216HW,2013-11-23 18:56:00,
2013-11-23 14:01:00,37.8,24.8,29.87,NW,315,8.1,12.5,59,0.00,,,0.00,WUHU216HW,2013-11-23 19:01:00,
2013-11-23 14:06:00,37.6,25.0,29.87,WSW,248,7.6,12.5,60,0.00,,,0.00,WUHU216HW,2013-11-23 19:06:00,
2013-11-23 14:11:00,37.1,23.2,29.87,NW,315,10.1,15.0,57,0.00,,,0.00,WUHU216HW,2013-11-23 19:11:00,
2013-11-23 14:16:00,36.9,23.5,29.86,NW,315,10.1,15.0,58,0.00,,,0.00,WUHU216HW,2013-11-23 19:16:00,
2013-11-23 14:21:00,37.1,23.7,29.87,NW,315,5.4,14.8,58,0.00,,,0.00,WUHU216HW,2013-11-23 19:21:00,
2013-11-23 14:26:00,37.1,23.7,29.87,WSW,248,12.8,13.6,58,0.00,,,0.00,WUHU216HW,2013-11-23 19:26:00,
2013-11-23 14:31:00,37.1,23.2,29.87,WNW,293,5.8,13.6,57,0.00,,,0.00,WUHU216HW,2013-11-23 19:31:00,
2013-11-23 14:36:00,36.9,23.0,29.87,West,270,8.1,13.4,57,0.00,,,0.00,WUHU216HW,2013-11-23 19:36:00,
2013-11-23 14:41:00,36.9,23.0,29.87,NNW,338,9.2,13.4,57,0.00,,,0.00,WUHU216HW,2013-11-23 19:41:00,
2013-11-23 14:46:00,37.1,24.1,29.87,WSW,248,6.7,11.9,59,0.00,,,0.00,WUHU216HW,2013-11-23 19:46:00,
2013-11-23 14:51:00,37.1,24.5,29.87,NW,315,4.3,10.7,60,0.00,,,0.00,WUHU216HW,2013-11-23 19:51:00,
2013-11-23 14:56:00,37.1,24.1,29.87,NW,315,6.7,9.8,59,0.00,,,0.00,WUHU216HW,2013-11-23 19:56:00,
2013-11-23 15:01:00,36.9,24.0,29.87,NW,315,9.8,9.8,59,0.00,,,0.00,WUHU216HW,2013-11-23 20:01:00,
2013-11-23 15:06:00,36.9,24.4,29.87,SW,225,8.5,11.2,60,0.00,,,0.00,WUHU216HW,2013-11-23 20:06:00,
2013-11-23 15:11:00,36.9,24.4,29.86,NNW,338,12.5,12.5,60,0.00,,,0.00,WUHU216HW,2013-11-23 20:11:00,
2013-11-23 15:16:00,36.7,24.2,29.86,NNW,338,8.7,12.5,60,0.00,,,0.00,WUHU216HW,2013-11-23 20:16:00,
2013-11-23 15:21:00,36.5,24.0,29.86,WNW,293,6.7,12.5,60,0.00,,,0.00,WUHU216HW,2013-11-23 20:21:00,
2013-11-23 15:26:00,36.7,24.6,29.86,WNW,293,5.1,8.9,61,0.00,,,0.00,WUHU216HW,2013-11-23 20:26:00,
2013-11-23 15:31:00,36.7,24.9,29.86,WSW,248,5.4,7.8,62,0.00,,,0.00,WUHU216HW,2013-11-23 20:31:00,
2013-11-23 15:36:00,36.9,25.1,29.87,WSW,248,4.7,7.8,62,0.00,,,0.00,WUHU216HW,2013-11-23 20:36:00,
2013-11-23 15:41:00,36.7,24.9,29.86,WSW,248,1.1,7.2,62,0.00,,,0.00,WUHU216HW,2013-11-23 20:41:00,
2013-11-23 15:46:00,36.9,24.8,29.86,NW,315,3.6,7.2,61,0.00,,,0.00,WUHU216HW,2013-11-23 20:46:00,
2013-11-23 15:51:00,36.7,24.2,29.86,WSW,248,2.9,8.5,60,0.00,,,0.00,WUHU216HW,2013-11-23 20:51:00,
2013-11-23 15:56:00,36.4,24.6,29.86,NNW,338,4.7,8.5,62,0.00,,,0.00,WUHU216HW,2013-11-23 20:56:00,
2013-11-23 16:01:00,36.0,23.6,29.86,West,270,5.1,11.4,60,0.00,,,0.00,WUHU216HW,2013-11-23 21:01:00,
2013-11-23 16:06:00,35.6,23.6,29.86,NW,315,10.7,11.4,61,0.00,,,0.00,WUHU216HW,2013-11-23 21:06:00,
2013-11-23 16:11:00,35.3,23.6,29.86,WSW,248,6.0,11.6,62,0.00,,,0.00,WUHU216HW,2013-11-23 21:11:00,
2013-11-23 16:16:00,35.3,23.9,29.86,WSW,248,4.3,11.6,63,0.00,,,0.00,WUHU216HW,2013-11-23 21:16:00,
2013-11-23 16:21:00,35.1,23.4,29.86,SW,225,1.1,6.9,62,0.00,,,0.00,WUHU216HW,2013-11-23 21:21:00,
2013-11-23 16:26:00,34.9,23.6,29.86,WSW,248,1.1,6.9,63,0.00,,,0.00,WUHU216HW,2013-11-23 21:26:00,
2013-11-23 16:31:00,34.9,23.6,29.86,SW,225,1.8,5.4,63,0.00,,,0.00,WUHU216HW,2013-11-23 21:31:00,
2013-11-23 16:36:00,34.9,23.6,29.86,WSW,248,1.8,5.4,63,0.00,,,0.00,WUHU216HW,2013-11-23 21:36:00,
2013-11-23 16:41:00,34.9,23.6,29.86,WSW,248,2.9,3.8,63,0.00,,,0.00,WUHU216HW,2013-11-23 21:41:00,
2013-11-23 16:46:00,34.9,23.9,29.86,WSW,248,2.5,5.4,64,0.00,,,0.00,WUHU216HW,2013-11-23 21:46:00,
2013-11-23 16:51:00,34.7,23.8,29.86,SW,225,1.6,5.4,64,0.00,,,0.00,WUHU216HW,2013-11-23 21:51:00,
2013-11-23 16:56:00,34.6,23.2,29.86,WSW,248,3.4,3.8,63,0.00,,,0.00,WUHU216HW,2013-11-23 21:56:00,
2013-11-23 17:01:00,34.2,22.5,29.86,WSW,248,5.4,5.4,62,0.00,,,0.00,WUHU216HW,2013-11-23 22:01:00,
2013-11-23 17:06:00,33.8,21.4,29.87,NNW,338,11.9,14.8,60,0.00,,,0.00,WUHU216HW,2013-11-23 22:06:00,
2013-11-23 17:11:00,33.5,21.1,29.87,West,270,4.7,14.8,60,0.00,,,0.00,WUHU216HW,2013-11-23 22:11:00,
2013-11-23 17:16:00,33.5,21.4,29.87,West,270,4.7,14.5,61,0.00,,,0.00,WUHU216HW,2013-11-23 22:16:00,
2013-11-23 17:21:00,33.1,21.5,29.86,SW,225,4.0,8.7,62,0.00,,,0.00,WUHU216HW,2013-11-23 22:21:00,
2013-11-23 17:26:00,33.1,21.5,29.87,NW,315,7.2,8.9,62,0.00,,,0.00,WUHU216HW,2013-11-23 22:26:00,
2013-11-23 17:31:00,32.9,21.3,29.87,NW,315,4.0,8.9,62,0.00,,,0.00,WUHU216HW,2013-11-23 22:31:00,
2013-11-23 17:36:00,32.8,21.2,29.87,NW,315,4.3,8.5,62,0.00,,,0.00,WUHU216HW,2013-11-23 22:36:00,
2013-11-23 17:41:00,32.8,21.2,29.87,West,270,2.9,8.5,62,0.00,,,0.00,WUHU216HW,2013-11-23 22:41:00,
2013-11-23 17:46:00,32.8,21.5,29.87,East,90,1.3,8.3,63,0.00,,,0.00,WUHU216HW,2013-11-23 22:46:00,
2013-11-23 17:51:00,32.6,21.7,29.87,NNW,338,1.1,6.0,64,0.00,,,0.00,WUHU216HW,2013-11-23 22:51:00,
2013-11-23 17:56:00,32.6,21.3,29.87,West,270,4.7,6.0,63,0.00,,,0.00,WUHU216HW,2013-11-23 22:56:00,
2013-11-23 18:01:00,32.8,21.9,29.87,WNW,293,2.5,6.3,64,0.00,,,0.00,WUHU216HW,2013-11-23 23:01:00,
2013-11-23 18:06:00,32.8,21.2,29.87,NNW,338,11.2,11.2,62,0.00,,,0.00,WUHU216HW,2013-11-23 23:06:00,
2013-11-23 18:09:00,32.8,21.2,29.87,WNW,293,9.6,12.8,62,0.00,,,0.00,WUHU216HW,2013-11-23 23:09:00,
2013-11-23 18:14:00,32.8,21.5,29.87,NW,315,6.5,12.8,63,0.00,,,0.00,WUHU216HW,2013-11-23 23:14:00,
2013-11-23 18:19:00,32.8,21.2,29.88,WSW,248,5.1,9.8,62,0.00,,,0.00,WUHU216HW,2013-11-23 23:19:00,
2013-11-23 18:24:00,32.6,19.5,29.88,NNW,338,5.4,13.2,58,0.00,,,0.00,WUHU216HW,2013-11-23 23:24:00,
2013-11-23 18:29:00,32.4,20.9,29.88,NW,315,5.8,13.2,62,0.00,,,0.00,WUHU216HW,2013-11-23 23:29:00,
2013-11-23 18:34:00,32.2,20.0,29.88,WSW,248,3.1,15.0,60,0.00,,,0.00,WUHU216HW,2013-11-23 23:34:00,
2013-11-23 18:39:00,32.0,19.4,29.87,West,270,3.4,15.0,59,0.00,,,0.00,WUHU216HW,2013-11-23 23:39:00,
2013-11-23 18:44:00,32.0,19.4,29.87,West,270,3.8,9.2,59,0.00,,,0.00,WUHU216HW,2013-11-23 23:44:00,
2013-11-23 18:49:00,31.9,19.2,29.88,WSW,248,3.6,9.2,59,0.00,,,0.00,WUHU216HW,2013-11-23 23:49:00,
2013-11-23 18:54:00,31.7,19.0,29.88,WSW,248,1.8,6.5,59,0.00,,,0.00,WUHU216HW,2013-11-23 23:54:00,
2013-11-23 18:59:00,31.5,18.8,29.88,WSW,248,3.6,6.3,59,0.00,,,0.00,WUHU216HW,2013-11-23 23:59:00,
2013-11-23 19:04:00,31.3,18.6,29.88,NW,315,3.1,6.3,59,0.00,,,0.00,WUHU216HW,2013-11-24 00:04:00,
2013-11-23 19:09:00,31.3,19.1,29.88,WNW,293,6.3,6.9,60,0.00,,,0.00,WUHU216HW,2013-11-24 00:09:00,
2013-11-23 19:14:00,31.3,19.1,29.88,WSW,248,2.5,9.2,60,0.00,,,0.00,WUHU216HW,2013-11-24 00:14:00,
2013-11-23 19:19:00,31.3,19.8,29.88,WSW,248,5.4,9.2,62,0.00,,,0.00,WUHU216HW,2013-11-24 00:19:00,
2013-11-23 19:24:00,31.3,19.8,29.88,NNW,338,4.3,7.4,62,0.00,,,0.00,WUHU216HW,2013-11-24 00:24:00,
2013-11-23 19:29:00,31.1,19.3,29.88,West,270,2.5,9.8,61,0.00,,,0.00,WUHU216HW,2013-11-24 00:29:00,
2013-11-23 19:34:00,31.0,19.1,29.89,WSW,248,9.2,13.6,61,0.00,,,0.00,WUHU216HW,2013-11-24 00:34:00,
2013-11-23 19:39:00,30.8,18.9,29.89,NW,315,1.6,14.1,61,0.00,,,0.00,WUHU216HW,2013-11-24 00:39:00,
2013-11-23 19:44:00,30.6,18.7,29.90,West,270,10.7,14.3,61,0.00,,,0.00,WUHU216HW,2013-11-24 00:44:00,
2013-11-23 19:49:00,30.6,18.7,29.89,NW,315,6.3,14.3,61,0.00,,,0.00,WUHU216HW,2013-11-24 00:49:00,
2013-11-23 19:54:00,30.4,18.5,29.90,ENE,68,3.1,12.1,61,0.00,,,0.00,WUHU216HW,2013-11-24 00:54:00,
2013-11-23 19:59:00,30.2,19.1,29.90,NNW,338,3.4,12.1,63,0.00,,,0.00,WUHU216HW,2013-11-24 00:59:00,
2013-11-23 20:04:00,30.2,18.7,29.90,WNW,293,4.0,8.9,62,0.00,,,0.00,WUHU216HW,2013-11-24 01:04:00,
2013-11-23 20:09:00,29.9,18.4,29.90,WNW,293,2.2,6.9,62,0.00,,,0.00,WUHU216HW,2013-11-24 01:09:00,
2013-11-23 20:14:00,29.7,18.3,29.90,SW,225,2.9,8.9,62,0.00,,,0.00,WUHU216HW,2013-11-24 01:14:00,
2013-11-23 20:19:00,29.5,17.4,29.91,NW,315,6.7,8.9,60,0.00,,,0.00,WUHU216HW,2013-11-24 01:19:00,
2013-11-23 20:24:00,29.3,17.9,29.91,WNW,293,9.2,11.4,62,0.00,,,0.00,WUHU216HW,2013-11-24 01:24:00,
2013-11-23 20:29:00,29.2,17.7,29.91,WNW,293,6.7,11.4,62,0.00,,,0.00,WUHU216HW,2013-11-24 01:29:00,
2013-11-23 20:34:00,29.2,17.7,29.91,NW,315,8.3,9.8,62,0.00,,,0.00,WUHU216HW,2013-11-24 01:34:00,
2013-11-23 20:39:00,29.0,17.6,29.91,West,270,6.7,8.3,62,0.00,,,0.00,WUHU216HW,2013-11-24 01:39:00,
2013-11-23 20:44:00,29.0,17.2,29.91,WSW,248,4.5,9.2,61,0.00,,,0.00,WUHU216HW,2013-11-24 01:44:00,
2013-11-23 20:49:00,28.8,17.1,29.91,NW,315,3.4,9.2,61,0.00,,,0.00,WUHU216HW,2013-11-24 01:49:00,
2013-11-23 20:54:00,28.6,16.9,29.91,WSW,248,2.7,8.7,61,0.00,,,0.00,WUHU216HW,2013-11-24 01:54:00,
2013-11-23 20:59:00,28.6,17.3,29.91,NNW,338,3.1,8.7,62,0.00,,,0.00,WUHU216HW,2013-11-24 01:59:00,
2013-11-23 21:04:00,28.4,16.7,29.91,West,270,1.1,3.4,61,0.00,,,0.00,WUHU216HW,2013-11-24 02:04:00,
2013-11-23 21:09:00,28.4,16.7,29.91,WNW,293,5.4,9.2,61,0.00,,,0.00,WUHU216HW,2013-11-24 02:09:00,
2013-11-23 21:14:00,28.3,16.6,29.91,NNW,338,7.4,9.2,61,0.00,,,0.00,WUHU216HW,2013-11-24 02:14:00,
2013-11-23 21:19:00,27.9,16.6,29.91,West,270,5.1,9.4,62,0.00,,,0.00,WUHU216HW,2013-11-24 02:19:00,
2013-11-23 21:24:00,27.9,16.6,29.91,NNW,338,9.8,9.8,62,0.00,,,0.00,WUHU216HW,2013-11-24 02:24:00,
2013-11-23 21:29:00,27.9,16.6,29.90,NW,315,1.1,9.8,62,0.00,,,0.00,WUHU216HW,2013-11-24 02:29:00,
2013-11-23 21:34:00,27.9,16.9,29.91,WNW,293,3.4,9.8,63,0.00,,,0.00,WUHU216HW,2013-11-24 02:34:00,
2013-11-23 21:39:00,27.9,16.9,29.91,West,270,4.5,7.8,63,0.00,,,0.00,WUHU216HW,2013-11-24 02:39:00,
2013-11-23 21:44:00,27.7,17.1,29.91,WSW,248,6.9,10.5,64,0.00,,,0.00,WUHU216HW,2013-11-24 02:44:00,
2013-11-23 21:49:00,27.5,16.2,29.91,WNW,293,5.8,10.5,62,0.00,,,0.00,WUHU216HW,2013-11-24 02:49:00,
2013-11-23 21:54:00,27.4,16.7,29.91,NW,315,6.9,10.3,64,0.00,,,0.00,WUHU216HW,2013-11-24 02:54:00,
2013-11-23 21:59:00,27.0,16.4,29.92,WNW,293,5.8,10.5,64,0.00,,,0.00,WUHU216HW,2013-11-24 02:59:00,
2013-11-23 22:04:00,26.8,16.6,29.92,West,270,5.4,10.5,65,0.00,,,0.00,WUHU216HW,2013-11-24 03:04:00,
2013-11-23 22:09:00,26.6,16.0,29.92,NW,315,5.8,10.5,64,0.00,,,0.00,WUHU216HW,2013-11-24 03:09:00,
2013-11-23 22:14:00,26.5,15.5,29.92,NNW,338,11.9,16.3,63,0.00,,,0.00,WUHU216HW,2013-11-24 03:14:00,
2013-11-23 22:19:00,26.1,15.1,29.92,NW,315,7.2,16.3,63,0.00,,,0.00,WUHU216HW,2013-11-24 03:19:00,
2013-11-23 22:24:00,25.9,14.7,29.92,WSW,248,8.9,15.0,62,0.00,,,0.00,WUHU216HW,2013-11-24 03:24:00,
2013-11-23 22:29:00,25.7,14.9,29.93,West,270,6.3,13.4,63,0.00,,,0.00,WUHU216HW,2013-11-24 03:29:00,
2013-11-23 22:34:00,25.7,14.9,29.93,WNW,293,4.7,13.4,63,0.00,,,0.00,WUHU216HW,2013-11-24 03:34:00,
2013-11-23 22:39:00,25.6,15.4,29.93,WSW,248,1.3,7.2,65,0.00,,,0.00,WUHU216HW,2013-11-24 03:39:00,
2013-11-23 22:44:00,25.4,17.6,29.94,WNW,293,3.8,7.2,72,0.00,,,0.00,WUHU216HW,2013-11-24 03:44:00,
2013-11-23 22:49:00,24.5,17.0,29.94,NW,315,3.4,5.8,73,0.00,,,0.00,WUHU216HW,2013-11-24 03:49:00,
2013-11-23 22:54:00,23.4,15.7,29.94,NNW,338,5.6,8.5,72,0.00,,,0.00,WUHU216HW,2013-11-24 03:54:00,
2013-11-23 22:59:00,22.9,15.5,29.94,NNW,338,3.4,9.8,73,0.00,,,0.00,WUHU216HW,2013-11-24 03:59:00,
2013-11-23 23:04:00,22.7,15.3,29.95,WNW,293,5.8,9.8,73,0.00,,,0.00,WUHU216HW,2013-11-24 04:04:00,
2013-11-23 23:09:00,22.5,15.1,29.95,North,0,4.7,6.9,73,0.00,,,0.00,WUHU216HW,2013-11-24 04:09:00,
2013-11-23 23:14:00,22.5,14.5,29.95,NNE,23,2.7,9.8,71,0.00,,,0.00,WUHU216HW,2013-11-24 04:14:00,
2013-11-23 23:19:00,22.5,14.5,29.95,NE,45,1.1,9.8,71,0.00,,,0.00,WUHU216HW,2013-11-24 04:19:00,
2013-11-23 23:24:00,22.7,14.7,29.95,WNW,293,3.4,7.6,71,0.00,,,0.00,WUHU216HW,2013-11-24 04:24:00,
2013-11-23 23:29:00,22.7,14.7,29.95,NNW,338,1.1,5.4,71,0.00,,,0.00,WUHU216HW,2013-11-24 04:29:00,
2013-11-23 23:34:00,22.7,14.7,29.95,North,0,0.2,3.4,71,0.00,,,0.00,WUHU216HW,2013-11-24 04:34:00,
2013-11-23 23:39:00,22.5,13.9,29.95,WNW,293,6.3,7.4,69,0.00,,,0.00,WUHU216HW,2013-11-24 04:39:00,
2013-11-23 23:44:00,22.1,13.5,29.96,NNW,338,5.6,9.6,69,0.00,,,0.00,WUHU216HW,2013-11-24 04:44:00,
2013-11-23 23:49:00,21.8,13.1,29.96,North,0,5.8,10.5,69,0.00,,,0.00,WUHU216HW,2013-11-24 04:49:00,
2013-11-23 23:54:00,21.4,12.8,29.96,NW,315,1.8,10.5,69,0.00,,,0.00,WUHU216HW,2013-11-24 04:54:00,
2013-11-23 23:59:00,21.2,12.2,29.96,NNW,338,4.3,9.2,68,0.00,,,0.00,WUHU216HW,2013-11-24 04:59:00,